N3DOU-1 Weather Reports


time (UTC)temp
F
wind
direction
speed
knots
gust
knots
rain 1hr
in
rain 24hr
in
rain mn
in
humidity
%
barometer
mb
20260505034124 61 270 0.0 1.7 0.00 0.00 0.00 70 1010.5
20260505032624 61 203 0.0 0.9 0.00 0.00 0.00 68 1010.5
20260505031126 61 174 0.0 0.9 0.00 0.00 0.00 66 1010.5
20260505025623 62 246 0.0 0.9 0.00 0.00 0.00 63 1010.5
20260505024125 62 206 0.0 0.9 0.00 0.00 0.00 60 1010.6
20260505022622 63 178 0.0 0.9 0.00 0.00 0.00 58 1010.8
20260505021122 63 180 0.0 0.0 0.00 0.00 0.00 57 1010.6
20260505015623 63 180 0.0 0.0 0.00 0.00 0.00 56 1010.5
20260505014124 63 180 0.0 0.9 0.00 0.00 0.00 56 1010.3
20260505012732 64 131 0.0 0.9 0.00 0.00 0.00 56 1010.4
20260505012623 64 131 0.0 0.9 0.00 0.00 0.00 56 1010.4
20260505005625 65 131 0.0 0.0 0.00 0.00 0.00 53 1010.2
20260505004124 65 131 0.0 0.0 0.00 0.00 0.00 52 1010.1
20260505002627 66 272 0.0 0.9 0.00 0.00 0.00 51 1010.1
20260505001125 67 169 0.0 0.9 0.00 0.00 0.00 50 1010.0
20260504235623 68 210 0.0 0.0 0.00 0.00 0.00 47 1010.0
20260504234123 69 186 0.0 0.9 0.00 0.00 0.00 46 1010.0
20260504232623 70 209 0.9 2.6 0.00 0.00 0.00 47 1010.0
20260504231126 71 178 0.0 0.9 0.00 0.00 0.00 45 1009.9
20260504225622 72 216 2.6 2.6 0.00 0.00 0.00 39 1009.9
20260504224123 73 172 2.6 4.3 0.00 0.00 0.00 37 1009.7
20260504222624 74 230 1.7 5.2 0.00 0.00 0.00 38 1009.8
20260504221123 74 207 2.6 4.3 0.00 0.00 0.00 36 1009.8
20260504215622 75 231 1.7 2.6 0.00 0.00 0.00 36 1010.0
20260504214125 75 212 4.3 7.0 0.00 0.00 0.00 36 1010.0
20260504212625 76 221 0.9 2.6 0.00 0.00 0.00 38 1010.1
20260504211126 76 121 0.9 2.6 0.00 0.00 0.00 36 1010.0
20260504205625 76 183 5.2 7.0 0.00 0.00 0.00 36 1010.1
20260504204125 76 92 1.7 5.2 0.00 0.00 0.00 40 1010.1
20260504201123 75 160 1.7 2.6 0.00 0.00 0.00 37 1010.6
20260504192625 75 239 2.6 6.1 0.00 0.00 0.00 36 1011.4
20260504191125 74 232 0.9 2.6 0.00 0.00 0.00 39 1011.6
20260504184125 74 205 1.7 7.0 0.00 0.00 0.00 36 1011.8
20260504182624 74 267 1.7 6.1 0.00 0.00 0.00 35 1011.9
20260504174126 73 316 2.6 2.6 0.00 0.00 0.00 35 1012.7
20260504172625 72 185 1.7 4.3 0.00 0.00 0.00 34 1012.7
20260504171125 71 288 2.6 5.2 0.00 0.00 0.00 35 1013.0
20260504151125 67 209 1.7 2.6 0.00 0.00 0.00 45 1014.1
20260504081123 49 224 0.0 0.0 0.00 0.00 0.00 76 1015.4
20260504045624 47 242 0.0 0.0 0.00 0.00 0.00 74 1015.6
20260504044124 46 242 0.0 0.0 0.00 0.00 0.00 73 1015.7
20260504042624 46 250 0.0 0.0 0.00 0.00 0.00 73 1015.4
20260504041123 46 250 0.0 0.0 0.00 0.00 0.00 71 1015.5
20260504035624 45 250 0.0 0.0 0.00 0.00 0.00 72 1015.4